owner,sensor,date,latitude,longitude,air_pressure(mBar),qcFlag 
TABS,ioos:station:wmo:42044:1,2010-08-01T00:00:00Z,26.1914,-97.0507,1025.62,11111222 
TABS,ioos:station:wmo:42044:1,2010-08-01T00:30:00Z,26.1914,-97.0507,1016.92,11111222 
TABS,ioos:station:wmo:42044:1,2010-08-01T01:00:00Z,26.1914,-97.0507,1004.29,11111222 
TABS,ioos:station:wmo:42044:1,2010-08-01T01:30:00Z,26.1914,-97.0507,1000.27,11111222 
TABS,ioos:station:wmo:42044:1,2010-08-01T02:00:00Z,26.1914,-97.0507,999.64,11111222 
TABS,ioos:station:wmo:42044:1,2010-08-01T02:30:00Z,26.1914,-97.0507,999.23,11111222 
TABS,ioos:station:wmo:42044:1,2010-08-01T03:00:00Z,26.1914,-97.0507,998.86,11111222 
TABS,ioos:station:wmo:42044:1,2010-08-01T03:30:00Z,26.1914,-97.0507,998.53,11111222 
TABS,ioos:station:wmo:42044:1,2010-08-01T04:00:00Z,26.1914,-97.0507,998.48,11111222 
TABS,ioos:station:wmo:42044:1,2010-08-01T04:30:00Z,26.1914,-97.0507,998.37,11111222 
TABS,ioos:station:wmo:42044:1,2010-08-01T05:00:00Z,26.1914,-97.0507,998.19,11111222 
TABS,ioos:station:wmo:42044:1,2010-08-01T05:30:00Z,26.1914,-97.0507,998.24,11111222 
TABS,ioos:station:wmo:42044:1,2010-08-01T06:00:00Z,26.1914,-97.0507,998.2,11111222 
TABS,ioos:station:wmo:42044:1,2010-08-01T06:30:00Z,26.1914,-97.0507,998.0,11111222 
TABS,ioos:station:wmo:42044:1,2010-08-01T07:00:00Z,26.1914,-97.0507,997.77,11111222 
TABS,ioos:station:wmo:42044:1,2010-08-01T07:30:00Z,26.1914,-97.0507,997.38,11111222 
TABS,ioos:station:wmo:42044:1,2010-08-01T08:00:00Z,26.1914,-97.0507,997.46,11111222 
TABS,ioos:station:wmo:42044:1,2010-08-01T08:30:00Z,26.1914,-97.0507,997.67,11111222 
TABS,ioos:station:wmo:42044:1,2010-08-01T09:00:00Z,26.1914,-97.0507,997.49,11111222 
TABS,ioos:station:wmo:42044:1,2010-08-01T09:30:00Z,26.1914,-97.0507,997.32,11111222 
TABS,ioos:station:wmo:42044:1,2010-08-01T10:00:00Z,26.1914,-97.0507,997.6,11111222 
TABS,ioos:station:wmo:42044:1,2010-08-01T10:30:00Z,26.1914,-97.0507,997.57,11111222 
TABS,ioos:station:wmo:42044:1,2010-08-01T11:00:00Z,26.1914,-97.0507,997.31,11111222 
TABS,ioos:station:wmo:42044:1,2010-08-01T11:30:00Z,26.1914,-97.0507,997.2,11111222 
TABS,ioos:station:wmo:42044:1,2010-08-01T12:00:00Z,26.1914,-97.0507,998.22,11111222 
TABS,ioos:station:wmo:42044:1,2010-08-01T12:30:00Z,26.1914,-97.0507,1003.4,11111222 
TABS,ioos:station:wmo:42044:1,2010-08-01T13:00:00Z,26.1914,-97.0507,1006.68,11111222 
TABS,ioos:station:wmo:42044:1,2010-08-01T13:30:00Z,26.1914,-97.0507,1005.98,11111222 
TABS,ioos:station:wmo:42044:1,2010-08-01T14:00:00Z,26.1914,-97.0507,1005.06,11111222 
TABS,ioos:station:wmo:42044:1,2010-08-01T14:30:00Z,26.1914,-97.0507,1005.02,11111222 
TABS,ioos:station:wmo:42044:1,2010-08-01T15:00:00Z,26.1914,-97.0507,1006.97,11111222 
TABS,ioos:station:wmo:42044:1,2010-08-01T15:30:00Z,26.1914,-97.0507,1007.51,11111222 
TABS,ioos:station:wmo:42044:1,2010-08-01T16:00:00Z,26.1914,-97.0507,1006.28,11111222 
TABS,ioos:station:wmo:42044:1,2010-08-01T16:30:00Z,26.1914,-97.0507,1003.96,11111222 
TABS,ioos:station:wmo:42044:1,2010-08-01T17:00:00Z,26.1914,-97.0507,1002.97,11111222 
TABS,ioos:station:wmo:42044:1,2010-08-01T17:30:00Z,26.1914,-97.0507,1003.12,11111222 
TABS,ioos:station:wmo:42044:1,2010-08-01T18:00:00Z,26.1914,-97.0507,1003.68,11111222 
TABS,ioos:station:wmo:42044:1,2010-08-01T18:30:00Z,26.1914,-97.0507,1004.54,11111222 
TABS,ioos:station:wmo:42044:1,2010-08-01T19:00:00Z,26.1914,-97.0507,1008.97,11111222 
TABS,ioos:station:wmo:42044:1,2010-08-01T19:30:00Z,26.1914,-97.0507,1015.51,11111222 
TABS,ioos:station:wmo:42044:1,2010-08-01T20:00:00Z,26.1914,-97.0507,1021.14,11111222 
TABS,ioos:station:wmo:42044:1,2010-08-01T20:30:00Z,26.1914,-97.0507,1024.92,11111222 
TABS,ioos:station:wmo:42044:1,2010-08-01T21:00:00Z,26.1914,-97.0507,1027.57,11111222 
TABS,ioos:station:wmo:42044:1,2010-08-01T21:30:00Z,26.1914,-97.0507,1031.1,11111222 
TABS,ioos:station:wmo:42044:1,2010-08-01T22:00:00Z,26.1914,-97.0507,1029.54,11111222 
TABS,ioos:station:wmo:42044:1,2010-08-01T22:30:00Z,26.1914,-97.0507,1026.38,11111222 
TABS,ioos:station:wmo:42044:1,2010-08-01T23:00:00Z,26.1914,-97.0507,1024.03,11111222 
TABS,ioos:station:wmo:42044:1,2010-08-01T23:30:00Z,26.1914,-97.0507,1022.05,11111222 
TABS,ioos:station:wmo:42044:1,2010-08-02T00:00:00Z,26.1914,-97.0507,1017.47,11111222 
TABS,ioos:station:wmo:42044:1,2010-08-02T00:30:00Z,26.1914,-97.0507,1007.26,11111222 
TABS,ioos:station:wmo:42044:1,2010-08-02T01:00:00Z,26.1914,-97.0507,993.98,11111222 
TABS,ioos:station:wmo:42044:1,2010-08-02T01:30:00Z,26.1914,-97.0507,993.07,11111222 
TABS,ioos:station:wmo:42044:1,2010-08-02T02:00:00Z,26.1914,-97.0507,992.51,11111222 
TABS,ioos:station:wmo:42044:1,2010-08-02T02:30:00Z,26.1914,-97.0507,992.54,11111222 
TABS,ioos:station:wmo:42044:1,2010-08-02T03:00:00Z,26.1914,-97.0507,992.63,11111222 
TABS,ioos:station:wmo:42044:1,2010-08-02T03:30:00Z,26.1914,-97.0507,992.67,11111222 
TABS,ioos:station:wmo:42044:1,2010-08-02T04:00:00Z,26.1914,-97.0507,992.68,11111222 
TABS,ioos:station:wmo:42044:1,2010-08-02T04:30:00Z,26.1914,-97.0507,995.84,11111222 
TABS,ioos:station:wmo:42044:1,2010-08-02T05:00:00Z,26.1914,-97.0507,995.79,11111222 
TABS,ioos:station:wmo:42044:1,2010-08-02T05:30:00Z,26.1914,-97.0507,995.95,11111222 
TABS,ioos:station:wmo:42044:1,2010-08-02T06:00:00Z,26.1914,-97.0507,996.26,11111222 
TABS,ioos:station:wmo:42044:1,2010-08-02T06:30:00Z,26.1914,-97.0507,996.43,11111222 
TABS,ioos:station:wmo:42044:1,2010-08-02T07:00:00Z,26.1914,-97.0507,996.51,11111222 
TABS,ioos:station:wmo:42044:1,2010-08-02T07:30:00Z,26.1914,-97.0507,997.03,11111222 
TABS,ioos:station:wmo:42044:1,2010-08-02T08:00:00Z,26.1914,-97.0507,997.39,11111222 
TABS,ioos:station:wmo:42044:1,2010-08-02T08:30:00Z,26.1914,-97.0507,997.38,11111222 
TABS,ioos:station:wmo:42044:1,2010-08-02T09:00:00Z,26.1914,-97.0507,997.74,11111222 
TABS,ioos:station:wmo:42044:1,2010-08-02T09:30:00Z,26.1914,-97.0507,997.6,11111222 
TABS,ioos:station:wmo:42044:1,2010-08-02T10:00:00Z,26.1914,-97.0507,997.47,11111222 
TABS,ioos:station:wmo:42044:1,2010-08-02T10:30:00Z,26.1914,-97.0507,997.22,11111222 
TABS,ioos:station:wmo:42044:1,2010-08-02T11:00:00Z,26.1914,-97.0507,996.55,11111222 
TABS,ioos:station:wmo:42044:1,2010-08-02T11:30:00Z,26.1914,-97.0507,996.92,11111222 
TABS,ioos:station:wmo:42044:1,2010-08-02T12:00:00Z,26.1914,-97.0507,997.64,11111222 
TABS,ioos:station:wmo:42044:1,2010-08-02T12:30:00Z,26.1914,-97.0507,999.51,11111222 
TABS,ioos:station:wmo:42044:1,2010-08-02T13:00:00Z,26.1914,-97.0507,1002.53,11111222 
TABS,ioos:station:wmo:42044:1,2010-08-02T13:30:00Z,26.1914,-97.0507,1005.09,11111222 
TABS,ioos:station:wmo:42044:1,2010-08-02T14:00:00Z,26.1914,-97.0507,1008.56,11111222 
TABS,ioos:station:wmo:42044:1,2010-08-02T14:30:00Z,26.1914,-97.0507,1008.36,11111222 
TABS,ioos:station:wmo:42044:1,2010-08-02T15:00:00Z,26.1914,-97.0507,1011.91,11111222 
TABS,ioos:station:wmo:42044:1,2010-08-02T15:30:00Z,26.1914,-97.0507,1012.19,11111222 
TABS,ioos:station:wmo:42044:1,2010-08-02T16:00:00Z,26.1914,-97.0507,1010.13,11111222 
TABS,ioos:station:wmo:42044:1,2010-08-02T16:30:00Z,26.1914,-97.0507,1006.87,11111222 
TABS,ioos:station:wmo:42044:1,2010-08-02T17:00:00Z,26.1914,-97.0507,1006.1,11111222 
TABS,ioos:station:wmo:42044:1,2010-08-02T17:30:00Z,26.1914,-97.0507,1005.96,11111222 
TABS,ioos:station:wmo:42044:1,2010-08-02T18:00:00Z,26.1914,-97.0507,1005.83,11111222 
TABS,ioos:station:wmo:42044:1,2010-08-02T18:30:00Z,26.1914,-97.0507,1006.06,11111222 
TABS,ioos:station:wmo:42044:1,2010-08-02T19:00:00Z,26.1914,-97.0507,1013.71,11111222 
TABS,ioos:station:wmo:42044:1,2010-08-02T19:30:00Z,26.1914,-97.0507,1020.25,11111222 
TABS,ioos:station:wmo:42044:1,2010-08-02T20:00:00Z,26.1914,-97.0507,1023.57,11111222 
TABS,ioos:station:wmo:42044:1,2010-08-02T20:30:00Z,26.1914,-97.0507,1031.19,11111222 
TABS,ioos:station:wmo:42044:1,2010-08-02T21:00:00Z,26.1914,-97.0507,1031.15,11111222 
TABS,ioos:station:wmo:42044:1,2010-08-02T21:30:00Z,26.1914,-97.0507,1027.77,11111222 
TABS,ioos:station:wmo:42044:1,2010-08-02T22:00:00Z,26.1914,-97.0507,1024.81,11111222 
TABS,ioos:station:wmo:42044:1,2010-08-02T22:30:00Z,26.1914,-97.0507,1027.0,11111222 
TABS,ioos:station:wmo:42044:1,2010-08-02T23:00:00Z,26.1914,-97.0507,1026.77,11111222 
TABS,ioos:station:wmo:42044:1,2010-08-02T23:30:00Z,26.1914,-97.0507,1024.39,11111222 
TABS,ioos:station:wmo:42044:1,2010-08-03T00:00:00Z,26.1914,-97.0507,1020.57,11111222 
TABS,ioos:station:wmo:42044:1,2010-08-03T00:30:00Z,26.1914,-97.0507,1011.18,11111222 
TABS,ioos:station:wmo:42044:1,2010-08-03T01:00:00Z,26.1914,-97.0507,999.72,11111222 
TABS,ioos:station:wmo:42044:1,2010-08-03T01:30:00Z,26.1914,-97.0507,996.03,11111222 
TABS,ioos:station:wmo:42044:1,2010-08-03T02:00:00Z,26.1914,-97.0507,995.37,11111222 
TABS,ioos:station:wmo:42044:1,2010-08-03T02:30:00Z,26.1914,-97.0507,995.02,11111222 
TABS,ioos:station:wmo:42044:1,2010-08-03T03:00:00Z,26.1914,-97.0507,994.79,11111222 
TABS,ioos:station:wmo:42044:1,2010-08-03T03:30:00Z,26.1914,-97.0507,994.58,11111222 
TABS,ioos:station:wmo:42044:1,2010-08-03T04:00:00Z,26.1914,-97.0507,994.68,11111222 
TABS,ioos:station:wmo:42044:1,2010-08-03T04:30:00Z,26.1914,-97.0507,994.02,11111222 
TABS,ioos:station:wmo:42044:1,2010-08-03T05:00:00Z,26.1914,-97.0507,994.05,11111222 
TABS,ioos:station:wmo:42044:1,2010-08-03T05:30:00Z,26.1914,-97.0507,993.74,11111222 
TABS,ioos:station:wmo:42044:1,2010-08-03T06:00:00Z,26.1914,-97.0507,993.37,11111222 
TABS,ioos:station:wmo:42044:1,2010-08-03T06:30:00Z,26.1914,-97.0507,993.17,11111222 
TABS,ioos:station:wmo:42044:1,2010-08-03T07:00:00Z,26.1914,-97.0507,992.72,11111222 
TABS,ioos:station:wmo:42044:1,2010-08-03T07:30:00Z,26.1914,-97.0507,992.32,11111222 
TABS,ioos:station:wmo:42044:1,2010-08-03T08:00:00Z,26.1914,-97.0507,992.11,11111222 
TABS,ioos:station:wmo:42044:1,2010-08-03T08:30:00Z,26.1914,-97.0507,991.99,11111222 
TABS,ioos:station:wmo:42044:1,2010-08-03T09:00:00Z,26.1914,-97.0507,997.4,11111222 
TABS,ioos:station:wmo:42044:1,2010-08-03T09:30:00Z,26.1914,-97.0507,997.49,11111222 
TABS,ioos:station:wmo:42044:1,2010-08-03T10:00:00Z,26.1914,-97.0507,997.09,11111222 
TABS,ioos:station:wmo:42044:1,2010-08-03T10:30:00Z,26.1914,-97.0507,996.89,11111222 
TABS,ioos:station:wmo:42044:1,2010-08-03T11:00:00Z,26.1914,-97.0507,996.72,11111222 
TABS,ioos:station:wmo:42044:1,2010-08-03T11:30:00Z,26.1914,-97.0507,996.49,11111222 
TABS,ioos:station:wmo:42044:1,2010-08-03T12:00:00Z,26.1914,-97.0507,997.18,11111222 
TABS,ioos:station:wmo:42044:1,2010-08-03T12:30:00Z,26.1914,-97.0507,1001.98,11111222 
TABS,ioos:station:wmo:42044:1,2010-08-03T13:00:00Z,26.1914,-97.0507,1007.21,11111222 
TABS,ioos:station:wmo:42044:1,2010-08-03T13:30:00Z,26.1914,-97.0507,1011.94,11111222 
TABS,ioos:station:wmo:42044:1,2010-08-03T14:00:00Z,26.1914,-97.0507,1012.19,11111222 
TABS,ioos:station:wmo:42044:1,2010-08-03T14:30:00Z,26.1914,-97.0507,1005.24,11111222 
TABS,ioos:station:wmo:42044:1,2010-08-03T15:00:00Z,26.1914,-97.0507,1004.4,11111222 
TABS,ioos:station:wmo:42044:1,2010-08-03T15:30:00Z,26.1914,-97.0507,1016.46,11111222 
TABS,ioos:station:wmo:42044:1,2010-08-03T16:00:00Z,26.1914,-97.0507,1008.67,11111222 
TABS,ioos:station:wmo:42044:1,2010-08-03T16:30:00Z,26.1914,-97.0507,1008.19,11111222 
TABS,ioos:station:wmo:42044:1,2010-08-03T17:00:00Z,26.1914,-97.0507,1010.88,11111222 
TABS,ioos:station:wmo:42044:1,2010-08-03T17:30:00Z,26.1914,-97.0507,1007.06,11111222 
TABS,ioos:station:wmo:42044:1,2010-08-03T18:00:00Z,26.1914,-97.0507,1006.91,11111222 
TABS,ioos:station:wmo:42044:1,2010-08-03T18:30:00Z,26.1914,-97.0507,1010.04,11111222 
TABS,ioos:station:wmo:42044:1,2010-08-03T19:00:00Z,26.1914,-97.0507,1019.39,11111222 
TABS,ioos:station:wmo:42044:1,2010-08-03T19:30:00Z,26.1914,-97.0507,1027.07,11111222 
TABS,ioos:station:wmo:42044:1,2010-08-03T20:00:00Z,26.1914,-97.0507,1028.77,11111222 
TABS,ioos:station:wmo:42044:1,2010-08-03T20:30:00Z,26.1914,-97.0507,1023.85,11111222 
TABS,ioos:station:wmo:42044:1,2010-08-03T21:00:00Z,26.1914,-97.0507,1031.15,11111222 
TABS,ioos:station:wmo:42044:1,2010-08-03T21:30:00Z,26.1914,-97.0507,1032.76,11111222 
TABS,ioos:station:wmo:42044:1,2010-08-03T22:00:00Z,26.1914,-97.0507,1032.5,11111222 
TABS,ioos:station:wmo:42044:1,2010-08-03T22:30:00Z,26.1914,-97.0507,1032.15,11111222 
TABS,ioos:station:wmo:42044:1,2010-08-03T23:00:00Z,26.1914,-97.0507,1029.0,11111222 
TABS,ioos:station:wmo:42044:1,2010-08-03T23:30:00Z,26.1914,-97.0507,1023.2,11111222 
TABS,ioos:station:wmo:42044:1,2010-08-04T00:00:00Z,26.1914,-97.0507,1019.27,11111222 
TABS,ioos:station:wmo:42044:1,2010-08-04T00:30:00Z,26.1914,-97.0507,1008.51,11111222 
TABS,ioos:station:wmo:42044:1,2010-08-04T01:00:00Z,26.1914,-97.0507,1001.62,11111222 
TABS,ioos:station:wmo:42044:1,2010-08-04T01:30:00Z,26.1914,-97.0507,1000.04,11111222 
TABS,ioos:station:wmo:42044:1,2010-08-04T02:00:00Z,26.1914,-97.0507,999.44,11111222 
TABS,ioos:station:wmo:42044:1,2010-08-04T02:30:00Z,26.1914,-97.0507,999.15,11111222 
TABS,ioos:station:wmo:42044:1,2010-08-04T03:00:00Z,26.1914,-97.0507,999.05,11111222 
TABS,ioos:station:wmo:42044:1,2010-08-04T03:30:00Z,26.1914,-97.0507,999.09,11111222 
TABS,ioos:station:wmo:42044:1,2010-08-04T04:00:00Z,26.1914,-97.0507,998.73,11111222 
TABS,ioos:station:wmo:42044:1,2010-08-04T04:30:00Z,26.1914,-97.0507,998.51,11111222 
TABS,ioos:station:wmo:42044:1,2010-08-04T05:00:00Z,26.1914,-97.0507,998.53,11111222 
TABS,ioos:station:wmo:42044:1,2010-08-04T05:30:00Z,26.1914,-97.0507,998.45,11111222 
TABS,ioos:station:wmo:42044:1,2010-08-04T06:00:00Z,26.1914,-97.0507,997.76,11111222 
TABS,ioos:station:wmo:42044:1,2010-08-04T06:30:00Z,26.1914,-97.0507,997.23,11111222 
TABS,ioos:station:wmo:42044:1,2010-08-04T07:00:00Z,26.1914,-97.0507,997.24,11111222 
TABS,ioos:station:wmo:42044:1,2010-08-04T07:30:00Z,26.1914,-97.0507,996.96,11111222 
TABS,ioos:station:wmo:42044:1,2010-08-04T08:00:00Z,26.1914,-97.0507,996.9,11111222 
TABS,ioos:station:wmo:42044:1,2010-08-04T08:30:00Z,26.1914,-97.0507,996.42,11111222 
TABS,ioos:station:wmo:42044:1,2010-08-04T09:00:00Z,26.1914,-97.0507,996.11,11111222 
TABS,ioos:station:wmo:42044:1,2010-08-04T09:30:00Z,26.1914,-97.0507,995.82,11111222 
TABS,ioos:station:wmo:42044:1,2010-08-04T10:00:00Z,26.1914,-97.0507,995.45,11111222 
TABS,ioos:station:wmo:42044:1,2010-08-04T10:30:00Z,26.1914,-97.0507,995.57,11111222 
TABS,ioos:station:wmo:42044:1,2010-08-04T11:00:00Z,26.1914,-97.0507,995.24,11111222 
TABS,ioos:station:wmo:42044:1,2010-08-04T11:30:00Z,26.1914,-97.0507,995.22,11111222 
TABS,ioos:station:wmo:42044:1,2010-08-04T12:00:00Z,26.1914,-97.0507,995.65,11111222 
TABS,ioos:station:wmo:42044:1,2010-08-04T12:30:00Z,26.1914,-97.0507,1001.24,11111222 
TABS,ioos:station:wmo:42044:1,2010-08-04T13:00:00Z,26.1914,-97.0507,1005.86,11111222 
TABS,ioos:station:wmo:42044:1,2010-08-04T13:30:00Z,26.1914,-97.0507,1009.84,11111222 
TABS,ioos:station:wmo:42044:1,2010-08-04T14:00:00Z,26.1914,-97.0507,1015.01,11111222 
TABS,ioos:station:wmo:42044:1,2010-08-04T14:30:00Z,26.1914,-97.0507,1012.88,11111222 
TABS,ioos:station:wmo:42044:1,2010-08-04T15:00:00Z,26.1914,-97.0507,1008.31,11111222 
TABS,ioos:station:wmo:42044:1,2010-08-04T15:30:00Z,26.1914,-97.0507,1023.63,11111222 
TABS,ioos:station:wmo:42044:1,2010-08-04T16:00:00Z,26.1914,-97.0507,1015.74,11111222 
TABS,ioos:station:wmo:42044:1,2010-08-04T16:30:00Z,26.1914,-97.0507,1009.41,11111222 
TABS,ioos:station:wmo:42044:1,2010-08-04T17:00:00Z,26.1914,-97.0507,1004.78,11111222 
TABS,ioos:station:wmo:42044:1,2010-08-04T17:30:00Z,26.1914,-97.0507,1004.18,11111222 
TABS,ioos:station:wmo:42044:1,2010-08-04T18:00:00Z,26.1914,-97.0507,1004.68,11111222 
TABS,ioos:station:wmo:42044:1,2010-08-04T18:30:00Z,26.1914,-97.0507,1006.96,11111222 
TABS,ioos:station:wmo:42044:1,2010-08-04T19:00:00Z,26.1914,-97.0507,1012.11,11111222 
TABS,ioos:station:wmo:42044:1,2010-08-04T19:30:00Z,26.1914,-97.0507,1016.41,11111222 
TABS,ioos:station:wmo:42044:1,2010-08-04T20:00:00Z,26.1914,-97.0507,1021.69,11111222 
TABS,ioos:station:wmo:42044:1,2010-08-04T20:30:00Z,26.1914,-97.0507,1023.25,11111222 
TABS,ioos:station:wmo:42044:1,2010-08-04T21:00:00Z,26.1914,-97.0507,1024.52,11111222 
TABS,ioos:station:wmo:42044:1,2010-08-04T21:30:00Z,26.1914,-97.0507,1024.57,11111222 
TABS,ioos:station:wmo:42044:1,2010-08-04T22:00:00Z,26.1914,-97.0507,1025.32,11111222 
TABS,ioos:station:wmo:42044:1,2010-08-04T22:30:00Z,26.1914,-97.0507,1024.44,11111222 
TABS,ioos:station:wmo:42044:1,2010-08-04T23:00:00Z,26.1914,-97.0507,1022.99,11111222 
TABS,ioos:station:wmo:42044:1,2010-08-04T23:30:00Z,26.1914,-97.0507,1023.88,11111222 
TABS,ioos:station:wmo:42044:1,2010-08-05T00:00:00Z,26.1914,-97.0507,1019.86,11111222 
TABS,ioos:station:wmo:42044:1,2010-08-05T00:30:00Z,26.1914,-97.0507,1011.98,11111222 
TABS,ioos:station:wmo:42044:1,2010-08-05T01:00:00Z,26.1914,-97.0507,1001.77,11111222 
TABS,ioos:station:wmo:42044:1,2010-08-05T01:30:00Z,26.1914,-97.0507,998.34,11111222 
TABS,ioos:station:wmo:42044:1,2010-08-05T02:00:00Z,26.1914,-97.0507,997.82,11111222 
TABS,ioos:station:wmo:42044:1,2010-08-05T02:30:00Z,26.1914,-97.0507,997.36,11111222 
TABS,ioos:station:wmo:42044:1,2010-08-05T03:00:00Z,26.1914,-97.0507,997.17,11111222 
TABS,ioos:station:wmo:42044:1,2010-08-05T03:30:00Z,26.1914,-97.0507,996.95,11111222 
TABS,ioos:station:wmo:42044:1,2010-08-05T04:00:00Z,26.1914,-97.0507,996.81,11111222 
TABS,ioos:station:wmo:42044:1,2010-08-05T04:30:00Z,26.1914,-97.0507,996.84,11111222 
TABS,ioos:station:wmo:42044:1,2010-08-05T05:00:00Z,26.1914,-97.0507,996.48,11111222 
TABS,ioos:station:wmo:42044:1,2010-08-05T05:30:00Z,26.1914,-97.0507,996.28,11111222 
TABS,ioos:station:wmo:42044:1,2010-08-05T06:00:00Z,26.1914,-97.0507,995.79,11111222 
TABS,ioos:station:wmo:42044:1,2010-08-05T06:30:00Z,26.1914,-97.0507,995.47,11111222 
TABS,ioos:station:wmo:42044:1,2010-08-05T07:00:00Z,26.1914,-97.0507,995.38,11111222 
TABS,ioos:station:wmo:42044:1,2010-08-05T07:30:00Z,26.1914,-97.0507,995.37,11111222 
TABS,ioos:station:wmo:42044:1,2010-08-05T08:00:00Z,26.1914,-97.0507,995.31,11111222 
TABS,ioos:station:wmo:42044:1,2010-08-05T08:30:00Z,26.1914,-97.0507,995.44,11111222 
TABS,ioos:station:wmo:42044:1,2010-08-05T09:00:00Z,26.1914,-97.0507,995.42,11111222 
TABS,ioos:station:wmo:42044:1,2010-08-05T09:30:00Z,26.1914,-97.0507,995.38,11111222 
TABS,ioos:station:wmo:42044:1,2010-08-05T10:00:00Z,26.1914,-97.0507,995.46,11111222 
TABS,ioos:station:wmo:42044:1,2010-08-05T10:30:00Z,26.1914,-97.0507,995.03,11111222 
TABS,ioos:station:wmo:42044:1,2010-08-05T11:00:00Z,26.1914,-97.0507,995.13,11111222 
TABS,ioos:station:wmo:42044:1,2010-08-05T11:30:00Z,26.1914,-97.0507,995.06,11111222 
TABS,ioos:station:wmo:42044:1,2010-08-05T12:00:00Z,26.1914,-97.0507,995.47,11111222 
TABS,ioos:station:wmo:42044:1,2010-08-05T12:30:00Z,26.1914,-97.0507,996.37,11111222 
TABS,ioos:station:wmo:42044:1,2010-08-05T13:00:00Z,26.1914,-97.0507,997.64,11111222 
TABS,ioos:station:wmo:42044:1,2010-08-05T13:30:00Z,26.1914,-97.0507,996.54,11111222 
TABS,ioos:station:wmo:42044:1,2010-08-05T14:00:00Z,26.1914,-97.0507,1000.65,11111222 
TABS,ioos:station:wmo:42044:1,2010-08-05T14:30:00Z,26.1914,-97.0507,1001.86,11111222 
TABS,ioos:station:wmo:42044:1,2010-08-05T15:00:00Z,26.1914,-97.0507,1003.84,11111222 
TABS,ioos:station:wmo:42044:1,2010-08-05T15:30:00Z,26.1914,-97.0507,1005.45,11111222 
TABS,ioos:station:wmo:42044:1,2010-08-05T16:00:00Z,26.1914,-97.0507,1005.97,11111222 
TABS,ioos:station:wmo:42044:1,2010-08-05T16:30:00Z,26.1914,-97.0507,1003.41,11111222 
TABS,ioos:station:wmo:42044:1,2010-08-05T17:00:00Z,26.1914,-97.0507,1002.42,11111222 
TABS,ioos:station:wmo:42044:1,2010-08-05T17:30:00Z,26.1914,-97.0507,1001.93,11111222 
TABS,ioos:station:wmo:42044:1,2010-08-05T18:00:00Z,26.1914,-97.0507,1002.24,11111222 
TABS,ioos:station:wmo:42044:1,2010-08-05T18:30:00Z,26.1914,-97.0507,1003.15,11111222 
TABS,ioos:station:wmo:42044:1,2010-08-05T19:00:00Z,26.1914,-97.0507,1009.64,11111222 
TABS,ioos:station:wmo:42044:1,2010-08-05T19:30:00Z,26.1914,-97.0507,1014.92,11111222 
TABS,ioos:station:wmo:42044:1,2010-08-05T20:00:00Z,26.1914,-97.0507,1019.89,11111222 
TABS,ioos:station:wmo:42044:1,2010-08-05T20:30:00Z,26.1914,-97.0507,1022.59,11111222 
TABS,ioos:station:wmo:42044:1,2010-08-05T21:00:00Z,26.1914,-97.0507,1024.3,11111222 
TABS,ioos:station:wmo:42044:1,2010-08-05T21:30:00Z,26.1914,-97.0507,1026.89,11111222 
TABS,ioos:station:wmo:42044:1,2010-08-05T22:00:00Z,26.1914,-97.0507,1028.14,11111222 
TABS,ioos:station:wmo:42044:1,2010-08-05T22:30:00Z,26.1914,-97.0507,1025.79,11111222 
TABS,ioos:station:wmo:42044:1,2010-08-05T23:00:00Z,26.1914,-97.0507,1025.06,11111222 
TABS,ioos:station:wmo:42044:1,2010-08-05T23:30:00Z,26.1914,-97.0507,1022.54,11111222 
TABS,ioos:station:wmo:42044:1,2010-08-06T00:00:00Z,26.1914,-97.0507,1017.22,11111222 
TABS,ioos:station:wmo:42044:1,2010-08-06T00:30:00Z,26.1914,-97.0507,1009.45,11111222 
TABS,ioos:station:wmo:42044:1,2010-08-06T01:00:00Z,26.1914,-97.0507,999.41,11111222 
TABS,ioos:station:wmo:42044:1,2010-08-06T01:30:00Z,26.1914,-97.0507,995.89,11111222 
TABS,ioos:station:wmo:42044:1,2010-08-06T02:00:00Z,26.1914,-97.0507,995.46,11111222 
TABS,ioos:station:wmo:42044:1,2010-08-06T02:30:00Z,26.1914,-97.0507,995.16,11111222 
TABS,ioos:station:wmo:42044:1,2010-08-06T03:00:00Z,26.1914,-97.0507,994.9,11111222 
TABS,ioos:station:wmo:42044:1,2010-08-06T03:30:00Z,26.1914,-97.0507,995.21,11111222 
TABS,ioos:station:wmo:42044:1,2010-08-06T04:00:00Z,26.1914,-97.0507,995.11,11111222 
TABS,ioos:station:wmo:42044:1,2010-08-06T04:30:00Z,26.1914,-97.0507,994.8,11111222 
TABS,ioos:station:wmo:42044:1,2010-08-06T05:00:00Z,26.1914,-97.0507,994.62,11111222 
TABS,ioos:station:wmo:42044:1,2010-08-06T05:30:00Z,26.1914,-97.0507,994.29,11111222 
TABS,ioos:station:wmo:42044:1,2010-08-06T06:00:00Z,26.1914,-97.0507,993.99,11111222 
TABS,ioos:station:wmo:42044:1,2010-08-06T06:30:00Z,26.1914,-97.0507,993.65,11111222 
TABS,ioos:station:wmo:42044:1,2010-08-06T07:00:00Z,26.1914,-97.0507,993.49,11111222 
TABS,ioos:station:wmo:42044:1,2010-08-06T07:30:00Z,26.1914,-97.0507,993.46,11111222 
TABS,ioos:station:wmo:42044:1,2010-08-06T08:00:00Z,26.1914,-97.0507,993.37,11111222 
TABS,ioos:station:wmo:42044:1,2010-08-06T08:30:00Z,26.1914,-97.0507,993.31,11111222 
TABS,ioos:station:wmo:42044:1,2010-08-06T09:00:00Z,26.1914,-97.0507,993.41,11111222 
TABS,ioos:station:wmo:42044:1,2010-08-06T09:30:00Z,26.1914,-97.0507,993.33,11111222 
TABS,ioos:station:wmo:42044:1,2010-08-06T10:00:00Z,26.1914,-97.0507,993.42,11111222 
TABS,ioos:station:wmo:42044:1,2010-08-06T10:30:00Z,26.1914,-97.0507,993.35,11111222 
TABS,ioos:station:wmo:42044:1,2010-08-06T11:00:00Z,26.1914,-97.0507,993.26,11111222 
TABS,ioos:station:wmo:42044:1,2010-08-06T11:30:00Z,26.1914,-97.0507,993.2,11111222 
TABS,ioos:station:wmo:42044:1,2010-08-06T12:00:00Z,26.1914,-97.0507,993.86,11111222 
TABS,ioos:station:wmo:42044:1,2010-08-06T12:30:00Z,26.1914,-97.0507,996.89,11111222 
TABS,ioos:station:wmo:42044:1,2010-08-06T13:00:00Z,26.1914,-97.0507,1001.69,11111222 
TABS,ioos:station:wmo:42044:1,2010-08-06T13:30:00Z,26.1914,-97.0507,1003.26,11111222 
TABS,ioos:station:wmo:42044:1,2010-08-06T14:00:00Z,26.1914,-97.0507,1004.44,11111222 
TABS,ioos:station:wmo:42044:1,2010-08-06T14:30:00Z,26.1914,-97.0507,1005.47,11111222 
TABS,ioos:station:wmo:42044:1,2010-08-06T15:00:00Z,26.1914,-97.0507,1006.73,11111222 
TABS,ioos:station:wmo:42044:1,2010-08-06T15:30:00Z,26.1914,-97.0507,1007.55,11111222 
TABS,ioos:station:wmo:42044:1,2010-08-06T16:00:00Z,26.1914,-97.0507,1006.44,11111222 
TABS,ioos:station:wmo:42044:1,2010-08-06T16:30:00Z,26.1914,-97.0507,1002.99,11111222 
TABS,ioos:station:wmo:42044:1,2010-08-06T17:00:00Z,26.1914,-97.0507,1001.67,11111222 
TABS,ioos:station:wmo:42044:1,2010-08-06T17:30:00Z,26.1914,-97.0507,1001.32,11111222 
TABS,ioos:station:wmo:42044:1,2010-08-06T18:00:00Z,26.1914,-97.0507,1001.1,11111222 
TABS,ioos:station:wmo:42044:1,2010-08-06T18:30:00Z,26.1914,-97.0507,1001.18,11111222 
TABS,ioos:station:wmo:42044:1,2010-08-06T19:00:00Z,26.1914,-97.0507,1005.99,11111222 
TABS,ioos:station:wmo:42044:1,2010-08-06T19:30:00Z,26.1914,-97.0507,1012.55,11111222 